Location: State Camp
(41.2367°N, 77.7828°W)
Time: 06:59:43
(UTC-04:00)

Amateur Radio Satellites - All Passes

Search period start: 19 April 2015 06:29
Search period end: 20 April 2015 06:29
Location: State Camp, 41.2367°N, 77.7828°W

Satellite Date Start Highest point End Downlink Frequencies (MHz)
Time Altitude Azimuth
CUTE-I 19 Apr 06:41:28 06:45:43 25° 93° (E) 06:50:05 437.470
GONETS M04 19 Apr 06:44:11 06:51:21 27° 277° (W) 06:58:12
JAS-2 19 Apr 06:47:43 06:53:13 26° 299° (WNW) 06:58:04 435.910
Cubesat XI-IV 19 Apr 06:48:36 06:53:08 29° 95° (E) 06:57:46 437.490
STRAND 1 19 Apr 06:50:53 06:55:45 47° 71° (ENE) 07:00:40 437.568
Cosmos 2499 19 Apr 06:52:23 07:00:28 69° 79° (E) 07:07:53 435.465 / 435.565
PRISM 19 Apr 07:01:09 07:05:21 82° 76° (ENE) 07:09:33 437.425
AUBIESAT-1 19 Apr 07:06:27 07:10:30 28° 261° (W) 07:14:37 437.475
DANDE 19 Apr 07:34:18 07:39:10 20° 271° (W) 07:44:16 436.750
AIST 2 19 Apr 07:42:53 07:45:32 15° 320° (NW) 07:48:06 435.215
CUSAT 1 19 Apr 07:44:57 07:48:19 13° 275° (W) 07:51:19 437.405
CUBESAT XI-V 19 Apr 08:08:57 08:11:46 15° 270° (W) 08:14:23 437.345
CUTE-I 19 Apr 08:21:00 08:25:59 42° 290° (WNW) 08:30:56 437.470
AO-7 19 Apr 08:21:45 08:24:47 12° 316° (NW) 08:27:21 29.400- 29.500
HO-68 19 Apr 08:26:10 08:29:25 14° 86° (E) 08:33:09 435.675
Cubesat XI-IV 19 Apr 08:28:28 08:33:19 36° 291° (WNW) 08:38:05 437.490
STRAND 1 19 Apr 08:31:24 08:35:15 20° 268° (W) 08:38:57 437.568
Cosmos 2499 19 Apr 08:46:57 08:52:48 22° 279° (W) 08:58:03 435.465 / 435.565
DOVE 4 19 Apr 09:22:11 09:26:30 30° 95° (E) 09:31:04 437.250
BRITE-PL 19 Apr 09:22:32 09:27:21 66° 101° (E) 09:32:34 437.365/2234.400
PCSat 19 Apr 09:24:24 09:28:24 22° 108° (ESE) 09:32:34 145.827
CINEMA 3 19 Apr 09:24:30 09:27:30 17° 90° (E) 09:30:44 145.822/145.860
COMPASS 1 19 Apr 09:25:58 09:29:10 21° 93° (E) 09:32:27 437.405
O/OREOS (USA 219) 19 Apr 09:31:11 09:35:20 35° 61° (ENE) 09:39:29 437.305
CANX-2 19 Apr 09:35:13 09:39:22 45° 98° (E) 09:43:28 2200.000
SEEDS 19 Apr 09:39:21 09:43:19 37° 97° (E) 09:47:16 437.485
CUTE 1.7 + AOD 2 19 Apr 09:45:27 09:49:40 53° 99° (E) 09:53:52 437.475
GOMX 1 19 Apr 09:47:35 09:52:31 78° 102° (ESE) 09:57:46 467.674
TIGRISAT 19 Apr 10:01:36 10:04:53 21° 67° (ENE) 10:08:21 435.000
UNISAT 6 19 Apr 10:02:23 10:05:47 22° 67° (ENE) 10:09:20 437.425
ZACube-1 19 Apr 10:10:05 10:12:49 16° 90° (E) 10:15:44 437.345
HO-68 19 Apr 10:11:06 10:18:21 84° 106° (ESE) 10:25:32 435.675
CUBEBUG 2 19 Apr 10:12:12 10:16:09 26° 94° (E) 10:20:11 437.445
AAUSAT CUBESAT 2 19 Apr 10:14:04 10:18:16 65° 101° (E) 10:22:25 437.432
Cosmos 2491 19 Apr 10:21:18 10:29:26 41° 71° (ENE) 10:37:41 435.465 / 435.565
POLYITAN 1 19 Apr 10:21:54 10:24:33 17° 66° (ENE) 10:27:22 437.675
Oscar 11 19 Apr 10:25:46 10:29:52 39° 98° (E) 10:33:57 145.826/435.025
DUCHIFAT 1 19 Apr 10:31:37 10:34:41 20° 67° (ENE) 10:37:50 145.980
DELFI C3 19 Apr 10:36:47 10:40:36 38° 97° (E) 10:44:23 145.870
ANTELSAT 19 Apr 10:42:58 10:47:20 58° 74° (ENE) 10:51:50 437.575/2403.000
QB50P1 19 Apr 10:43:45 10:47:18 28° 70° (ENE) 10:50:57 145.935-145.965
DX 1 19 Apr 10:47:19 10:50:45 23° 94° (E) 10:54:14 434.975-435.025
UWE-3 19 Apr 10:53:24 10:58:00 57° 99° (E) 11:02:38 435.000/436.395/437.385
BUGSAT 1 19 Apr 10:58:44 11:02:08 27° 70° (ENE) 11:05:36 437.445
DOVE 4 19 Apr 10:59:52 11:04:15 32° 290° (WNW) 11:08:45 437.250
CINEMA 3 19 Apr 11:00:16 11:05:04 56° 286° (WNW) 11:09:57 145.822/145.860
COMPASS 1 19 Apr 11:01:09 11:04:57 32° 289° (WNW) 11:08:39 437.405
BRITE-PL 19 Apr 11:02:40 11:05:32 15° 294° (WNW) 11:08:18 437.365/2234.400
HUMSAT D 19 Apr 11:03:29 11:07:10 27° 95° (E) 11:10:55 437.325/437.525
PCSat 19 Apr 11:06:12 11:11:29 52° 304° (NW) 11:16:49 145.827
QB50P2 19 Apr 11:06:34 11:10:38 51° 73° (ENE) 11:14:46 145.880/145.840
O/OREOS (USA 219) 19 Apr 11:11:05 11:14:34 22° 258° (WSW) 11:17:55 437.305
CANX-2 19 Apr 11:12:10 11:14:59 17° 294° (WNW) 11:17:38 2200.000
SEEDS 19 Apr 11:15:48 11:18:54 19° 293° (WNW) 11:21:53 437.485
FUNcube-1 19 Apr 11:22:32 11:27:09 89° 283° (WNW) 11:31:46 145.935
CUTE 1.7 + AOD 2 19 Apr 11:22:47 11:25:12 14° 295° (WNW) 11:27:27 437.475
VELOX 1 19 Apr 11:25:24 11:29:08 27° 95° (E) 11:32:56 145.980
GOMX 1 19 Apr 11:27:42 11:30:11 14° 296° (WNW) 11:32:30 467.674
POPSAT HIP 1 19 Apr 11:29:34 11:33:46 88° 256° (WSW) 11:38:01 437.405
YUBILEINY 19 Apr 11:29:35 11:37:46 46° 89° (E) 11:46:03 435.215
NANOSAT C BR1 19 Apr 11:29:44 11:33:56 88° 256° (WSW) 11:38:10 145.865
TIGRISAT 19 Apr 11:37:17 11:41:24 38° 263° (W) 11:45:38 435.000
UNISAT 6 19 Apr 11:38:16 11:42:22 36° 264° (W) 11:46:34 437.425
AISAT 19 Apr 11:40:00 11:44:11 40° 98° (E) 11:48:23 437.250
UKube-1 19 Apr 11:40:06 11:44:27 83° 103° (ESE) 11:48:47 .
ZACube-1 19 Apr 11:45:03 11:49:32 51° 286° (WNW) 11:53:59 437.345
CUBEBUG 2 19 Apr 11:48:37 11:52:52 33° 290° (WNW) 11:57:06 437.445
AAUSAT CUBESAT 2 19 Apr 11:51:49 11:53:24 12° 296° (WNW) 11:54:47 437.432
CUBEBUG 1 19 Apr 11:52:10 11:55:44 25° 94° (E) 11:59:23 437.445
50 SAT 19 Apr 11:53:38 11:57:41 62° 101° (ESE) 12:01:41 437.505
ESTCUBE 1 19 Apr 11:53:53 11:57:48 30° 95° (E) 12:01:47 437.505/2401.250
POLYITAN 1 19 Apr 11:56:11 12:00:11 42° 262° (W) 12:04:14 437.675
HO-68 19 Apr 12:00:15 12:05:19 20° 303° (WNW) 12:10:08 435.675
Oscar 11 19 Apr 12:02:39 12:05:48 19° 293° (WNW) 12:08:48 145.826/435.025
DUCHIFAT 1 19 Apr 12:06:30 12:10:19 34° 263° (W) 12:14:09 145.980
DELFI C3 19 Apr 12:12:47 12:15:29 17° 293° (WNW) 12:18:02 145.870
Cosmos 2491 19 Apr 12:18:11 12:26:26 45° 271° (W) 12:34:35 435.465 / 435.565
QB50P1 19 Apr 12:19:43 12:23:12 24° 266° (W) 12:26:37 145.935-145.965
ANTELSAT 19 Apr 12:22:21 12:24:37 13° 272° (W) 12:26:42 437.575/2403.000
DX 1 19 Apr 12:23:10 12:27:04 32° 290° (WNW) 12:30:54 434.975-435.025
Oscar 19 19 Apr 12:29:49 12:32:49 16° 62° (ENE) 12:36:02 437.125/150
BEESAT 2 19 Apr 12:30:49 12:32:41 13° 38° (NE) 12:34:42 435.950
UWE-3 19 Apr 12:31:12 12:34:08 16° 295° (WNW) 12:36:53 435.000/436.395/437.385
BUGSAT 1 19 Apr 12:34:24 12:37:38 22° 266° (W) 12:40:47 437.445
BEESAT 3 19 Apr 12:38:10 12:40:49 17° 42° (NE) 12:43:32 437.485
HUMSAT D 19 Apr 12:39:12 12:42:53 27° 291° (WNW) 12:46:29 437.325/437.525
QB50P2 19 Apr 12:44:47 12:46:56 13° 271° (W) 12:48:52 145.880/145.840
PCSat 19 Apr 12:54:56 12:56:19 11° 326° (NNW) 12:57:28 145.827
Cosmos 2504 19 Apr 12:57:09 13:01:11 15° 77° (ENE) 13:05:53 435.465 / 435.565
VELOX 1 19 Apr 13:01:54 13:05:41 28° 291° (WNW) 13:09:26 145.980
FUNcube-1 19 Apr 13:02:33 13:02:51 10° 298° (WNW) 13:02:53 145.935
AIST 1 19 Apr 13:17:16 13:21:34 87° 258° (WSW) 13:25:48
AISAT 19 Apr 13:17:17 13:20:33 20° 293° (WNW) 13:23:40 437.250
SO-50 19 Apr 13:19:57 13:24:07 35° 115° (ESE) 13:28:29 436.795
YUBILEINY 19 Apr 13:26:32 13:34:44 40° 289° (WNW) 13:42:51 435.215
CUBEBUG 1 19 Apr 13:28:21 13:32:07 29° 290° (WNW) 13:35:50 437.445
50 SAT 19 Apr 13:30:35 13:32:03 11° 296° (WNW) 13:33:18 437.505
ESTCUBE 1 19 Apr 13:30:52 13:34:36 26° 292° (WNW) 13:38:16 437.505/2401.250
ITUPSAT 1 19 Apr 13:34:19 13:34:59 10° 87° (E) 13:35:59 437.325
TISAT 1 19 Apr 13:37:06 13:41:21 78° 101° (E) 13:45:36 437.305
SPROUT 19 Apr 13:40:20 13:44:39 77° 284° (WNW) 13:48:58 437.525
AO-7 19 Apr 13:46:55 13:48:51 11° 44° (NE) 13:51:17 29.400- 29.500
RS-15 19 Apr 13:52:08 13:55:20 12° 98° (E) 13:59:38 29.354- 29.394
ISS 19 Apr 14:01:01 14:03:05 16° 132° (SE) 14:05:13 145.825
Oscar 19 19 Apr 14:06:34 14:11:40 67° 258° (WSW) 14:16:51 437.125/150
BEESAT 19 Apr 14:07:08 14:11:01 25° 94° (E) 14:14:57 436.000
BEESAT 2 19 Apr 14:07:18 14:11:28 86° 239° (WSW) 14:15:32 435.950
SWISSCUBE 19 Apr 14:08:18 14:12:20 28° 95° (E) 14:16:25 437.505
Gurwin Techsat 1B 19 Apr 14:13:56 14:18:48 40° 70° (ENE) 14:23:45 435.225
BEESAT 3 19 Apr 14:15:12 14:19:15 58° 241° (WSW) 14:23:12 437.485
AIST 2 19 Apr 14:24:07 14:28:14 47° 53° (NE) 14:32:17 435.215
ITAMSAT 1 19 Apr 14:25:26 14:30:31 60° 73° (ENE) 14:35:39 435.822/435.867
Cosmos 2504 19 Apr 14:44:34 14:53:19 76° 95° (E) 15:02:12 435.465 / 435.565
SO-50 19 Apr 15:00:32 15:04:42 30° 314° (NW) 15:08:59 436.795
ITUPSAT 1 19 Apr 15:08:47 15:13:35 79° 284° (WNW) 15:18:19 437.325
JAS-2 19 Apr 15:12:35 15:19:03 31° 63° (ENE) 15:25:40 435.910
TISAT 1 19 Apr 15:16:06 15:16:36 10° 297° (WNW) 15:16:53 437.305
AO-7 19 Apr 15:32:03 15:39:52 49° 64° (ENE) 15:47:46 29.400- 29.500
STARS 19 Apr 15:32:15 15:35:41 22° 93° (E) 15:39:12 437.465
ISS 19 Apr 15:35:58 15:39:10 57° 327° (NNW) 15:42:25 145.825
HORYU 2 19 Apr 15:37:25 15:41:45 51° 72° (ENE) 15:46:08 437.375
BEESAT 19 Apr 15:44:37 15:48:56 34° 291° (WNW) 15:53:12 436.000
SWISSCUBE 19 Apr 15:46:01 15:50:13 31° 291° (WNW) 15:54:20 437.505
Gurwin Techsat 1B 19 Apr 15:54:29 15:58:56 26° 267° (W) 16:03:18 435.225
RS-15 19 Apr 15:55:07 16:05:47 66° 116° (ESE) 16:16:44 29.354- 29.394
KKS-1 19 Apr 15:56:15 16:00:43 64° 101° (E) 16:05:11 437.445
GONETS M04 19 Apr 15:56:40 15:59:57 13° 76° (ENE) 16:03:56
AIST 2 19 Apr 16:03:40 16:06:29 17° 249° (WSW) 16:09:08 435.215
ITAMSAT 1 19 Apr 16:07:09 16:10:30 17° 270° (W) 16:13:38 435.822/435.867
Cosmos 2504 19 Apr 16:40:38 16:47:45 25° 296° (WNW) 16:54:35 435.465 / 435.565
JAS-2 19 Apr 16:55:55 17:03:38 63° 260° (W) 17:11:23 435.910
STARS 19 Apr 17:08:12 17:12:14 34° 290° (WNW) 17:16:14 437.465
MOZHAYETS 4 19 Apr 17:09:36 17:13:25 26° 94° (E) 17:17:16
ISS 19 Apr 17:13:52 17:16:05 17° 347° (NNW) 17:18:17 145.825
HORYU 2 19 Apr 17:16:06 17:18:47 15° 270° (W) 17:21:16 437.375
AO-7 19 Apr 17:25:16 17:32:52 38° 263° (W) 17:40:23 29.400- 29.500
KKS-1 19 Apr 17:34:37 17:36:54 13° 296° (WNW) 17:38:57 437.445
GONETS M04 19 Apr 17:46:44 17:55:25 74° 94° (E) 18:04:13
CUTE-I 19 Apr 18:03:09 18:08:06 41° 70° (ENE) 18:13:05 437.470
RS-15 19 Apr 18:08:45 18:18:56 41° 321° (NW) 18:29:18 29.354- 29.394
Cubesat XI-IV 19 Apr 18:10:28 18:15:33 48° 71° (ENE) 18:20:42 437.490
PCSat 19 Apr 18:11:24 18:15:26 21° 44° (NE) 18:19:36 145.827
CUBESAT XI-V 19 Apr 18:27:54 18:29:58 13° 88° (E) 18:32:17 437.345
PRISM 19 Apr 18:46:15 18:47:13 11° 89° (E) 18:48:26 437.425
MOZHAYETS 4 19 Apr 18:46:35 18:50:41 31° 290° (WNW) 18:54:40
AUBIESAT-1 19 Apr 18:48:10 18:51:37 23° 97° (E) 18:54:55 437.475
JAS-2 19 Apr 18:48:26 18:50:20 11° 280° (W) 18:51:29 435.910
ISS 19 Apr 18:51:35 18:53:26 14° 7° (N) 18:55:17 145.825
HO-68 19 Apr 18:57:04 18:59:40 13° 51° (NE) 19:02:41 435.675
STRAND 1 19 Apr 19:02:42 19:05:36 16° 89° (E) 19:08:44 437.568
DANDE 19 Apr 19:04:49 19:07:40 75° 281° (W) 19:11:15 436.750
CUSAT 1 19 Apr 19:10:09 19:13:06 41° 286° (WNW) 19:16:50 437.405
Cosmos 2499 19 Apr 19:26:48 19:35:23 59° 92° (E) 19:43:58 435.465 / 435.565
M-CUBED/EXP-1 PRIME 19 Apr 19:33:19 19:37:50 87° 114° (ESE) 19:41:55 437.505
VERMONT LUNAR 19 Apr 19:43:34 19:46:19 23° 154° (SSE) 19:49:06 437.305
CUTE-I 19 Apr 19:43:56 19:48:21 25° 267° (W) 19:52:40 437.470
GONETS M04 19 Apr 19:46:20 19:53:18 25° 296° (WNW) 20:00:01
Cubesat XI-IV 19 Apr 19:51:52 19:55:58 21° 268° (W) 19:59:56 437.490
PCSat 19 Apr 19:54:01 19:59:24 66° 244° (WSW) 20:04:45 145.827
CUBESAT XI-V 19 Apr 20:03:21 20:07:54 60° 286° (WNW) 20:12:25 437.345
COMPASS 1 19 Apr 20:18:07 20:20:38 16° 66° (ENE) 20:23:20 437.405
PRISM 19 Apr 20:19:07 20:23:10 59° 286° (WNW) 20:27:10 437.425
AUBIESAT-1 19 Apr 20:22:33 20:26:30 31° 296° (WNW) 20:30:06 437.475
ISS 19 Apr 20:27:33 20:30:33 33° 26° (NNE) 20:33:32 145.825
RS-15 19 Apr 20:27:36 20:35:34 21° 354° (N) 20:43:40 29.354- 29.394
CINEMA 3 19 Apr 20:27:45 20:29:44 13° 64° (ENE) 20:31:56 145.822/145.860
CANX-2 19 Apr 20:28:16 20:32:05 32° 71° (ENE) 20:35:58 2200.000
DOVE 4 19 Apr 20:28:51 20:32:16 25° 69° (ENE) 20:35:50 437.250
SEEDS 19 Apr 20:31:41 20:35:15 27° 70° (ENE) 20:38:54 437.485
BRITE-PL 19 Apr 20:34:19 20:38:26 71° 76° (ENE) 20:42:37 437.365/2234.400
CUTE 1.7 + AOD 2 19 Apr 20:38:19 20:42:16 38° 72° (ENE) 20:46:17 437.475
HO-68 19 Apr 20:39:07 20:46:10 63° 70° (ENE) 20:53:17 435.675
STRAND 1 19 Apr 20:40:17 20:45:19 61° 287° (WNW) 20:50:19 437.568
PHONESAT 2.4 19 Apr 20:42:09 20:45:07 25° 154° (SSE) 20:48:08 2401.200-2431.200
GOMX 1 19 Apr 20:56:31 21:00:39 80° 76° (ENE) 21:04:54 467.674
AAUSAT CUBESAT 2 19 Apr 21:04:49 21:08:48 43° 73° (ENE) 21:12:51 437.432
ZACube-1 19 Apr 21:07:29 21:09:14 13° 63° (ENE) 21:11:12 437.345
M-CUBED/EXP-1 PRIME 19 Apr 21:10:42 21:11:57 11° 305° (NW) 21:12:58 437.505
CUBEBUG 2 19 Apr 21:11:15 21:14:24 21° 67° (ENE) 21:17:44 437.445
VERMONT LUNAR 19 Apr 21:20:12 21:23:34 66° 170° (S) 21:26:56 437.305
Oscar 11 19 Apr 21:20:38 21:24:27 31° 70° (ENE) 21:28:21 145.826/435.025
Cosmos 2499 19 Apr 21:21:13 21:29:04 33° 292° (WNW) 21:36:39 435.465 / 435.565
DELFI C3 19 Apr 21:24:43 21:28:03 25° 69° (ENE) 21:31:27 145.870
YUBILEINY 19 Apr 21:40:15 21:46:35 22° 62° (ENE) 21:53:13 435.215
DX 1 19 Apr 21:43:23 21:46:33 21° 67° (ENE) 21:49:52 434.975-435.025
UWE-3 19 Apr 21:50:44 21:54:46 44° 72° (ENE) 21:58:59 435.000/436.395/437.385
SO-50 19 Apr 21:51:05 21:55:38 35° 48° (NE) 22:00:10 436.795
COMPASS 1 19 Apr 21:51:55 21:56:00 46° 262° (W) 22:00:07 437.405
HUMSAT D 19 Apr 21:56:00 21:59:00 20° 67° (ENE) 22:02:09 437.325/437.525
CINEMA 3 19 Apr 22:02:18 22:06:27 58° 260° (W) 22:10:49 145.822/145.860
ISS 19 Apr 22:03:57 22:06:54 32° 224° (SW) 22:09:49 145.825
CANX-2 19 Apr 22:04:43 22:08:06 22° 267° (W) 22:11:24 2200.000
DOVE 4 19 Apr 22:06:30 22:10:02 26° 266° (W) 22:13:36 437.250
SEEDS 19 Apr 22:07:25 22:11:02 26° 266° (W) 22:14:37 437.485
CUTE 1.7 + AOD 2 19 Apr 22:15:17 22:18:22 19° 269° (W) 22:21:20 437.475
FUNcube-1 19 Apr 22:18:13 22:22:27 70° 76° (ENE) 22:26:50 145.935
PHONESAT 2.4 19 Apr 22:19:32 22:23:07 67° 170° (S) 22:26:40 2401.200-2431.200
VELOX 1 19 Apr 22:23:23 22:26:56 25° 68° (ENE) 22:30:34 145.980
HO-68 19 Apr 22:28:40 22:34:27 25° 268° (W) 22:40:02 435.675
UKube-1 19 Apr 22:34:47 22:39:04 70° 75° (ENE) 22:43:24 .
ANTELSAT 19 Apr 22:36:47 22:38:55 13° 88° (E) 22:41:18 437.575/2403.000
AISAT 19 Apr 22:37:58 22:41:59 36° 71° (ENE) 22:46:03 437.250
50 SAT 19 Apr 22:39:14 22:42:52 35° 71° (ENE) 22:46:34 437.505
ZACube-1 19 Apr 22:40:52 22:45:05 64° 260° (W) 22:49:27 437.345
AAUSAT CUBESAT 2 19 Apr 22:42:02 22:44:42 16° 270° (W) 22:47:12 437.432
RS-15 19 Apr 22:43:28 22:53:00 30° 28° (NNE) 23:03:07 29.354- 29.394
CUBEBUG 2 19 Apr 22:46:57 22:50:54 35° 264° (W) 22:54:56 437.445
CUBEBUG 1 19 Apr 22:48:48 22:52:05 22° 68° (ENE) 22:55:27 437.445
ESTCUBE 1 19 Apr 22:53:42 22:57:32 29° 69° (ENE) 23:01:27 437.505/2401.250
Oscar 11 19 Apr 22:57:11 23:00:42 23° 267° (W) 23:04:08 145.826/435.025
VERMONT LUNAR 19 Apr 22:57:41 23:01:04 75° 186° (S) 23:04:26 437.305
DELFI C3 19 Apr 22:59:41 23:03:09 26° 266° (W) 23:06:34 145.870
NANOSAT C BR1 19 Apr 23:16:05 23:18:30 15° 90° (E) 23:21:05 145.865
POPSAT HIP 1 19 Apr 23:16:09 23:18:35 15° 90° (E) 23:21:13 437.405
DX 1 19 Apr 23:18:37 23:22:37 35° 262° (W) 23:26:37 434.975-435.025
Cosmos 2491 19 Apr 23:22:26 23:30:30 46° 89° (E) 23:38:45 435.465 / 435.565
TIGRISAT 19 Apr 23:28:37 23:33:09 45° 98° (E) 23:37:39 435.000
UWE-3 19 Apr 23:28:52 23:31:37 16° 270° (W) 23:34:17 435.000/436.395/437.385
UNISAT 6 19 Apr 23:29:48 23:34:22 47° 98° (E) 23:38:55 437.425
HUMSAT D 19 Apr 23:30:41 23:34:33 35° 263° (W) 23:38:27 437.325/437.525
SO-50 19 Apr 23:31:45 23:36:09 32° 245° (WSW) 23:40:27 436.795
YUBILEINY 19 Apr 23:35:49 23:44:37 80° 265° (W) 23:53:18 435.215
POLYITAN 1 19 Apr 23:41:42 23:45:30 30° 96° (E) 23:49:19 437.675
O/OREOS (USA 219) 19 Apr 23:43:11 23:47:29 41° 107° (ESE) 23:51:49 437.305
DUCHIFAT 1 19 Apr 23:51:00 23:54:56 36° 97° (E) 23:58:54 145.980
PHONESAT 2.4 19 Apr 23:57:45 00:01:20 75° 187° (S) 00:04:54 2401.200-2431.200
VELOX 1 19 Apr 23:59:31 00:03:25 30° 264° (W) 00:07:16 145.980
QB50P1 20 Apr 00:03:55 00:08:07 52° 100° (E) 00:12:19 145.935-145.965
ANTELSAT 20 Apr 00:11:31 00:16:13 64° 286° (WNW) 00:20:52 437.575/2403.000
50 SAT 20 Apr 00:15:09 00:17:52 17° 268° (W) 00:20:29 437.505
UKube-1 20 Apr 00:15:24 00:15:48 10° 272° (W) 00:15:54 .
AISAT 20 Apr 00:15:25 00:18:44 20° 267° (W) 00:21:57 437.250
BUGSAT 1 20 Apr 00:15:33 00:19:32 48° 99° (E) 00:23:34 437.445
CUBEBUG 1 20 Apr 00:24:20 00:28:18 33° 263° (W) 00:32:13 437.445
QB50P2 20 Apr 00:27:30 00:31:48 82° 284° (WNW) 00:36:06 145.880/145.840
TISAT 1 20 Apr 00:29:14 00:33:19 56° 74° (ENE) 00:37:26 437.305
ESTCUBE 1 20 Apr 00:30:30 00:34:23 27° 265° (W) 00:38:14 437.505/2401.250
SPROUT 20 Apr 00:34:16 00:38:32 81° 76° (ENE) 00:42:50 437.525
VERMONT LUNAR 20 Apr 00:35:21 00:38:24 31° 203° (SSW) 00:41:24 437.305
Cosmos 2504 20 Apr 00:38:50 00:45:30 27° 65° (ENE) 00:52:00 435.465 / 435.565
ITUPSAT 1 20 Apr 00:40:30 00:42:53 14° 63° (ENE) 00:45:27 437.325
NANOSAT C BR1 20 Apr 00:50:32 00:54:39 46° 287° (WNW) 00:58:44 145.865
POPSAT HIP 1 20 Apr 00:50:39 00:54:46 46° 287° (WNW) 00:58:53 437.405
RS-15 20 Apr 00:56:00 01:07:36 80° 56° (NE) 01:19:42 29.354- 29.394
TIGRISAT 20 Apr 01:06:08 01:09:36 20° 294° (WNW) 01:12:56 435.000
UNISAT 6 20 Apr 01:07:27 01:10:49 19° 294° (WNW) 01:14:03 437.425
BEESAT 20 Apr 01:13:40 01:17:45 29° 68° (ENE) 01:21:55 436.000
SWISSCUBE 20 Apr 01:14:53 01:19:06 33° 69° (ENE) 01:23:24 437.505
POLYITAN 1 20 Apr 01:17:48 01:21:18 24° 292° (WNW) 01:24:45 437.675
Cosmos 2491 20 Apr 01:19:29 01:27:33 39° 289° (WNW) 01:35:34 435.465 / 435.565
O/OREOS (USA 219) 20 Apr 01:23:35 01:27:08 21° 305° (NW) 01:30:35 437.305
DUCHIFAT 1 20 Apr 01:27:22 01:30:33 20° 293° (WNW) 01:33:37 145.980
YUBILEINY 20 Apr 01:35:32 01:40:10 15° 283° (WNW) 01:44:11 435.215
PHONESAT 2.4 20 Apr 01:36:10 01:39:24 32° 203° (SSW) 01:42:36 2401.200-2431.200
QB50P1 20 Apr 01:41:10 01:43:37 15° 295° (WNW) 01:45:54 145.935-145.965
AIST 1 20 Apr 01:46:31 01:50:44 55° 94° (E) 01:54:59
BUGSAT 1 20 Apr 01:52:19 01:54:41 15° 294° (WNW) 01:56:55 437.445
TISAT 1 20 Apr 02:07:53 02:09:33 12° 271° (W) 02:10:59 437.305
ITUPSAT 1 20 Apr 02:15:29 02:20:16 69° 259° (WSW) 02:25:05 437.325
Oscar 19 20 Apr 02:18:12 02:23:09 44° 98° (E) 02:28:07 437.125/150
STARS 20 Apr 02:29:41 02:32:50 20° 67° (ENE) 02:36:07 437.465
Gurwin Techsat 1B 20 Apr 02:31:19 02:34:16 15° 89° (E) 02:37:27 435.225
Cosmos 2504 20 Apr 02:31:32 02:39:39 62° 268° (W) 02:47:07 435.465 / 435.565
ITAMSAT 1 20 Apr 02:39:07 02:42:54 21° 92° (E) 02:46:49 435.822/435.867
BEESAT 20 Apr 02:51:21 02:55:35 30° 265° (W) 02:59:45 436.000
SWISSCUBE 20 Apr 02:52:56 02:57:01 27° 266° (W) 03:01:01 437.505
KKS-1 20 Apr 02:54:19 02:58:39 57° 74° (ENE) 03:03:02 437.445
RS-15 20 Apr 03:09:37 03:19:08 29° 255° (WSW) 03:28:27 29.354- 29.394
AIST 1 20 Apr 03:26:46 03:28:51 13° 293° (WNW) 03:30:42
AO-7 20 Apr 03:36:13 03:39:32 13° 85° (E) 03:43:33 29.400- 29.500
GONETS M04 20 Apr 03:57:20 04:05:18 37° 70° (ENE) 04:13:22
Oscar 19 20 Apr 03:58:07 04:02:17 24° 294° (WNW) 04:06:19 437.125/150
DANDE 20 Apr 04:00:15 04:04:06 16° 64° (ENE) 04:08:47 436.750
CUSAT 1 20 Apr 04:02:24 04:07:28 22° 67° (ENE) 04:13:26 437.405
BEESAT 2 20 Apr 04:02:29 04:05:11 18° 112° (ESE) 04:08:03 435.950
STARS 20 Apr 04:05:00 04:09:05 37° 262° (W) 04:13:11 437.465
JAS-2 20 Apr 04:08:16 04:12:52 20° 86° (E) 04:17:19 435.910
BEESAT 3 20 Apr 04:08:47 04:12:04 25° 114° (ESE) 04:15:29 437.485
Gurwin Techsat 1B 20 Apr 04:09:32 04:14:49 66° 287° (WNW) 04:20:04 435.225
MOZHAYETS 4 20 Apr 04:11:41 04:15:27 25° 68° (ENE) 04:19:17
ITAMSAT 1 20 Apr 04:17:43 04:22:42 47° 289° (WNW) 04:27:37 435.822/435.867
KKS-1 20 Apr 04:33:35 04:35:45 13° 271° (W) 04:37:42 437.445
M-CUBED/EXP-1 PRIME 20 Apr 04:48:36 04:51:10 15° 58° (ENE) 04:53:57 437.505
HORYU 2 20 Apr 05:05:05 05:09:37 78° 284° (WNW) 05:14:05 437.375
Cosmos 2499 20 Apr 05:20:13 05:25:29 19° 60° (ENE) 05:30:51 435.465 / 435.565
AO-7 20 Apr 05:25:37 05:33:57 75° 105° (ESE) 05:42:17 29.400- 29.500
CUBESAT XI-V 20 Apr 05:31:45 05:34:07 14° 64° (ENE) 05:36:41 437.345
AUBIESAT-1 20 Apr 05:35:00 05:39:15 35° 65° (ENE) 05:43:38 437.475
BEESAT 2 20 Apr 05:39:04 05:43:01 44° 308° (NW) 05:47:02 435.950
DANDE 20 Apr 05:41:19 05:48:06 81° 81° (E) 05:56:25 436.750
CUSAT 1 20 Apr 05:43:47 05:50:47 81° 262° (W) 05:59:02 437.405
BEESAT 3 20 Apr 05:46:16 05:49:59 32° 311° (NW) 05:53:43 437.485
MOZHAYETS 4 20 Apr 05:48:21 05:52:34 33° 264° (W) 05:56:45
JAS-2 20 Apr 05:52:02 05:58:44 63° 288° (WNW) 06:04:35 435.910
GONETS M04 20 Apr 05:54:00 06:02:27 50° 270° (W) 06:10:46
AIST 2 20 Apr 05:59:59 06:04:15 81° 303° (WNW) 06:08:34 435.215
STRAND 1 20 Apr 06:18:18 06:22:17 24° 66° (ENE) 06:26:23 437.568
CUTE-I 20 Apr 06:21:24 06:24:27 16° 89° (E) 06:27:45 437.470
